Simultaneous Nadir Overpasses (SNOs) Predictions

Prediction of SNOs between AURA and NPP Satellite Orbit:

Table of predicted SNOs for the next 14.0 days since TLE Epoch: 6/13/2014
Index Date (AURA) Time (AURA) Lat,Lon (AURA) SZA (AURA ) Date (NPP) Time (NPP) Lat,Lon (NPP) SZA (NPP ) Distance(km) Time Diff (sec)
1 06/14/2014 23:35:44 -76.82,-110.09 106.96 06/14/2014 23:35:32 -76.83,-110.00 106.98 2.35 12
2 06/15/2014 00:24:59 77.31, 59.41 72.44 06/15/2014 00:26:05 77.31, 59.35 72.40 1.61 66
3 06/17/2014 15:02:58 76.04,-164.42 73.90 06/17/2014 15:02:02 76.03,-164.50 73.97 2.48 56
4 06/17/2014 15:52:08 -76.88, 6.03 107.10 06/17/2014 15:52:29 -76.88, 5.98 107.11 1.30 21
5 06/20/2014 07:19:11 76.61, -46.68 73.22 06/20/2014 07:18:47 76.62, -46.59 73.21 2.69 24
6 06/20/2014 08:08:28 -77.11, 122.75 107.39 06/20/2014 08:09:22 -77.10, 122.67 107.41 2.08 54
7 06/22/2014 22:46:20 -76.07,-100.18 106.13 06/22/2014 22:45:12 -76.08,-100.09 106.09 2.60 68
8 06/22/2014 23:35:33 76.66, 69.41 73.18 06/22/2014 23:35:43 76.66, 69.35 73.19 1.52 10
9 06/25/2014 15:02:39 -76.30, 16.44 106.31 06/25/2014 15:02:05 -76.30, 16.47 106.29 1.02 34




NCC Satellite Simultaneous Nadir Overpasses (SNOs) Prediction Service
